Location: Kuppenheim
(48.8299°N, 8.2568°E)
Time: 09:43:26
(UTC+00:00)

Cosmos 2237 Rocket - Pass Details

Date: 20 June 2021
Orbit: 835 x 850 km, 71.0° (Epoch: 01 August)

Event Time Altitude Azimuth Distance (km) Brightness Sun altitude
Exits shadow 00:20:06 - 254° (WSW) 3,331 5.0 -16.8°
Reaches altitude 10° 00:22:59 10° 270° (W) 2,449 4.5 -16.7°
Maximum altitude 00:27:13 22° 319° (NW) 1,778 4.3 -16.6°
Drops below altitude 10° 00:31:29 10° 9° (N) 2,459 6.0 -16.4°
Sets 00:34:33 0° 24° (NNE) 3,398 7.1 -16.2°
